Stations météo

réclame
Mon MeteoGroup
Achnagart, Grande-Bretagne (99191): Température de l'air & dewpoint: 13.02.2020 21:00:00 - 19.02.2020 21:00:00 (GMT)Achnagart, Grande-Bretagne (99191): Quantités de précipitations: 13.02.2020 21:00:00 - 19.02.2020 21:00:00 (GMT)
Date & Time tt [°C] td [°C] rr [mm]
19.02.2020 21:00:00 9,4 6,7 0,6
19.02.2020 20:00:00 10,2 7,3 2,2
19.02.2020 19:00:00 9,0 8,0 4,6
19.02.2020 18:00:00 7,7 6,7 6,8
19.02.2020 17:00:00 7,3 5,4 3,8
19.02.2020 16:00:00 7,1 4,4 2,0
19.02.2020 15:00:00 6,3 3,4 0,6
19.02.2020 14:00:00 6,3 2,6 0,4
19.02.2020 13:00:00 6,2 2,7 0,2
19.02.2020 12:00:00 6,3 1,6 0,0
19.02.2020 11:00:00 6,3 1,1 0,0
19.02.2020 10:00:00 5,9 0,6 0,0
19.02.2020 09:00:00 4,5 1,1 0,0
19.02.2020 08:00:00 4,5 -0,3 0,0
19.02.2020 07:00:00 4,8 0,5 0,2
19.02.2020 06:00:00 5,0 -0,8 0,0
19.02.2020 05:00:00 5,3 0,1 -
19.02.2020 04:00:00 5,3 0,7 0,8
19.02.2020 03:00:00 5,2 1,1 0,4
19.02.2020 02:00:00 5,9 1,0 0,0
19.02.2020 01:00:00 5,2 2,3 0,6
19.02.2020 00:00:00 4,3 2,6 3,4
18.02.2020 23:00:00 4,0 2,5 3,6
18.02.2020 22:00:00 6,4 0,5 0,0
18.02.2020 21:00:00 5,4 0,6 0,6
18.02.2020 20:00:00 3,1 0,6 0,4
18.02.2020 19:00:00 2,8 0,8 2,0
18.02.2020 18:00:00 4,0 -0,3 1,4
18.02.2020 17:00:00 2,7 0,7 1,0
18.02.2020 16:00:00 4,4 -0,2 0,0
18.02.2020 15:00:00 3,9 1,2 1,6
18.02.2020 14:00:00 4,7 0,7 0,2
18.02.2020 13:00:00 6,1 0,2 0,0
18.02.2020 12:00:00 5,2 0,4 0,6
18.02.2020 11:00:00 5,0 0,3 0,8
18.02.2020 10:00:00 5,7 0,3 -
18.02.2020 09:00:00 4,5 1,3 1,4
18.02.2020 08:00:00 4,2 1,1 -
18.02.2020 07:00:00 4,4 1,0 1,0
18.02.2020 06:00:00 6,0 -0,3 -
18.02.2020 05:00:00 5,5 0,2 -
18.02.2020 04:00:00 3,5 0,8 0,6
18.02.2020 03:00:00 5,8 0,3 -
18.02.2020 02:00:00 4,4 1,6 -
18.02.2020 01:00:00 4,2 1,1 1,2
18.02.2020 00:00:00 4,1 0,5 -
17.02.2020 23:00:00 5,1 0,5 0,4
17.02.2020 22:00:00 6,3 0,3 0,0
17.02.2020 21:00:00 5,9 1,9 1,0
17.02.2020 20:00:00 6,0 1,7 -
17.02.2020 19:00:00 4,4 2,6 -
17.02.2020 18:00:00 5,9 2,7 -
17.02.2020 17:00:00 5,8 2,7 -
17.02.2020 16:00:00 5,0 2,0 -
17.02.2020 15:00:00 6,6 2,6 0,4
17.02.2020 14:00:00 8,0 1,5 0,0
17.02.2020 13:00:00 7,7 3,1 0,0
17.02.2020 12:00:00 7,6 3,1 0,6
17.02.2020 11:00:00 6,2 3,5 1,4
17.02.2020 10:00:00 6,6 4,0 1,4
17.02.2020 09:00:00 7,5 3,8 0,2
17.02.2020 08:00:00 8,1 3,9 0,0
17.02.2020 07:00:00 7,0 4,2 1,0
17.02.2020 06:00:00 8,1 2,9 0,0
17.02.2020 05:00:00 8,3 2,8 0,0
17.02.2020 04:00:00 8,5 3,0 0,2
17.02.2020 03:00:00 7,5 3,3 0,6
17.02.2020 02:00:00 8,0 3,4 0,2
17.02.2020 01:00:00 8,2 3,2 2,4
17.02.2020 00:00:00 7,9 3,1 1,6
16.02.2020 23:00:00 6,9 3,8 3,8
16.02.2020 22:00:00 7,9 2,8 0,0
16.02.2020 21:00:00 6,7 3,6 5,2
16.02.2020 20:00:00 6,9 2,7 1,8
16.02.2020 19:00:00 7,0 2,4 1,0
16.02.2020 18:00:00 7,2 2,6 2,0
16.02.2020 17:00:00 5,9 2,6 1,2
16.02.2020 16:00:00 5,7 2,2 1,4
16.02.2020 15:00:00 4,8 2,3 3,6
16.02.2020 14:00:00 4,9 1,8 1,6
16.02.2020 13:00:00 6,1 0,6 0,0
16.02.2020 12:00:00 7,1 -0,2 0,4
16.02.2020 11:00:00 5,7 1,9 2,2
16.02.2020 10:00:00 3,9 1,7 3,0
16.02.2020 09:00:00 5,4 0,3 0,8
16.02.2020 08:00:00 5,0 0,0 0,4
16.02.2020 07:00:00 5,1 -1,0 0,2
16.02.2020 06:00:00 4,3 -1,9 0,6
16.02.2020 05:00:00 3,9 0,7 2,8
16.02.2020 04:00:00 5,8 0,2 0,4
16.02.2020 03:00:00 5,8 2,6 3,6
16.02.2020 02:00:00 5,1 2,7 1,0
16.02.2020 01:00:00 7,0 0,0 0,0
16.02.2020 00:00:00 6,7 -0,1 0,0
15.02.2020 23:00:00 6,5 0,8 0,4
15.02.2020 22:00:00 7,1 0,4 0,2
15.02.2020 21:00:00 6,7 1,4 0,6
15.02.2020 20:00:00 6,0 2,0 0,4
15.02.2020 19:00:00 5,7 2,1 1,6
15.02.2020 18:00:00 5,6 3,8 2,0
15.02.2020 17:00:00 6,2 3,1 5,2
15.02.2020 16:00:00 8,0 5,2 6,0
15.02.2020 15:00:00 9,7 5,7 5,0
15.02.2020 14:00:00 8,5 6,9 3,4
15.02.2020 13:00:00 8,7 6,3 2,0
15.02.2020 12:00:00 7,9 5,3 4,4
15.02.2020 11:00:00 7,7 4,9 3,8
15.02.2020 10:00:00 7,5 4,5 1,8
15.02.2020 09:00:00 7,5 3,9 1,0
15.02.2020 08:00:00 6,8 3,2 0,6
15.02.2020 07:00:00 7,2 2,5 0,2
15.02.2020 06:00:00 8,2 0,9 0,0
15.02.2020 05:00:00 7,4 0,2 0,0
15.02.2020 04:00:00 6,8 -0,4 0,0
15.02.2020 03:00:00 7,0 -1,0 0,0
15.02.2020 02:00:00 6,3 -1,0 0,0
15.02.2020 01:00:00 7,2 0,1 0,0
15.02.2020 00:00:00 7,5 0,6 0,0
14.02.2020 23:00:00 7,4 1,0 0,0
14.02.2020 22:00:00 7,6 1,2 0,0
14.02.2020 21:00:00 7,6 -0,2 0,0
14.02.2020 20:00:00 6,2 0,8 0,4
14.02.2020 19:00:00 6,0 1,6 3,6
14.02.2020 18:00:00 7,5 0,3 0,0
14.02.2020 17:00:00 6,3 2,7 0,6
14.02.2020 16:00:00 8,7 1,4 0,0
14.02.2020 15:00:00 8,4 2,4 0,6
14.02.2020 14:00:00 9,9 1,9 0,0
14.02.2020 13:00:00 9,4 3,1 0,8
14.02.2020 12:00:00 9,3 5,6 2,6
14.02.2020 11:00:00 7,0 4,6 3,4
14.02.2020 10:00:00 6,6 4,0 2,6
14.02.2020 09:00:00 6,8 3,7 1,0
14.02.2020 08:00:00 7,3 1,7 0,0
14.02.2020 07:00:00 6,6 0,2 0,0
14.02.2020 06:00:00 6,1 0,0 0,0
14.02.2020 05:00:00 7,2 -0,4 0,0
14.02.2020 04:00:00 4,7 -1,0 0,0
14.02.2020 03:00:00 4,1 -1,3 0,0
14.02.2020 02:00:00 3,7 -1,4 0,0
14.02.2020 01:00:00 1,2 -1,9 0,0
14.02.2020 00:00:00 1,2 -2,3 0,0
13.02.2020 23:00:00 1,3 -2,1 0,0
13.02.2020 22:00:00 1,4 -2,0 0,0
13.02.2020 21:00:00 1,3 -1,8 0,0

tt = Température de l'air
td = dewpoint
rr = Quantités de précipitations

stations d'obs. à proximité